Location: Newark
(40.4667°N, 5.6000°W)
Time: 11:34:48
(UTC+00:00)

Courier 1B - Visible Passes

Search period start: 13 November 2019 00:00
Search period end: 23 November 2019 00:00
Orbit: 963 x 1209 km, 28.3° (Epoch: 12 November)

Date Brightness Start Highest point End Pass type
(mag) Time Alt. Az. Time Alt. Az. Time Alt. Az.
17 Nov 9.9 06:05:37 10° SSW 06:09:29 16° SSE 06:13:15 10° SE visible
18 Nov 10.0 05:13:05 10° S 05:15:57 13° SSE 05:18:47 10° SE visible
19 Nov 9.6 06:10:25 10° SW 06:15:30 22° SSE 06:20:25 10° ESE visible
20 Nov 9.6 05:17:12 10° SSW 05:21:57 19° SSE 05:26:33 10° ESE visible
21 Nov 9.7 04:25:48 14° S 04:28:23 16° SSE 04:32:28 10° ESE visible
21 Nov 9.2 06:15:54 10° SW 06:21:35 27° S 06:27:02 10° ESE visible
22 Nov 9.9 03:35:44 13° SSE 03:35:44 13° SSE 03:38:00 10° SE visible
22 Nov 9.3 05:22:39 11° SW 05:27:59 25° S 05:33:23 10° ESE visible
